Weather History for KHYW - October, 2012

Change the Weather History Date:

Saturday, October 13, 2012

  Actual Average Record
Temperature  
Mean Temperature 62 °F -  
Max Temperature 73 °F 77 °F 84 °F (2010)
Min Temperature 51 °F 53 °F 51 °F (2012)
Degree Days  
Heating Degree Days 3    
Growing Degree Days 12 (Base 50)    
Moisture  
Dew Point 51 °F    
Average Humidity 75    
Maximum Humidity 100    
Minimum Humidity 46    
Precipitation  
Precipitation 0.00 in - - ()
Sea Level Pressure  
Sea Level Pressure 30.34 in    
Wind  
Wind Speed 6 mph (NE)    
Max Wind Speed 12 mph    
Max Gust Speed 16 mph    
Visibility 7 miles    
Events      
Averages and records for this station are not official NWS values.
T = Trace of Precipitation, MM = Missing Value Source: NWS Daily Summary

Daily Weather History Graph

Daily Weather History Graph

Search for Another Location

Airport or City:

Trip Planner

Search our weather history database for the weather conditions in past years. The results will help you decide how hot, cold, wet, or windy it might be!

Date:

Astronomy

Oct. 13, 2012 Rise Set
Actual Time 7:20 AM EDT 6:44 PM EDT
Civil Twilight 6:55 AM EDT 7:09 PM EDT
Nautical Twilight 6:26 AM EDT 7:38 PM EDT
Astronomical Twilight 5:57 AM EDT 8:07 PM EDT
Moon 5:12 AM EDT (10/13) 5:24 PM EDT (10/13)
Length of Visible Light 12h 14m
Length of Day
11h 24m
Waning Crescent, 5% of the Moon is Illuminated
Oct 13
Waning Crescent
Oct 15
New
Oct 21
First Quarter
Oct 29
Full
Nov 6
Last Quarter

Hourly Weather History & Observations

Time (EDT) Temp. Dew Point Humidity Pressure Visibility Wind Dir Wind Speed Gust Speed Precip Events Conditions
12:35 AM 55.4 °F 51.8 °F 88% 30.29 in 7.0 mi NNE 4.6 mph - N/A   Clear
12:55 AM 57.2 °F 51.8 °F 82% 30.29 in 7.0 mi Calm Calm - N/A   Clear
2:35 AM 55.4 °F 51.8 °F 88% 30.30 in 7.0 mi NE 6.9 mph - N/A   Clear
2:55 AM 55.4 °F 51.8 °F 88% 30.30 in 7.0 mi NE 6.9 mph - N/A   Clear
3:15 AM 55.4 °F 50.0 °F 82% 30.29 in 7.0 mi NE 8.1 mph - N/A   Clear
3:35 AM 55.4 °F 50.0 °F 82% 30.29 in 7.0 mi NE 8.1 mph - N/A   Clear
3:55 AM 55.4 °F 48.2 °F 77% 30.30 in 7.0 mi NE 8.1 mph - N/A   Clear
4:15 AM 55.4 °F 48.2 °F 77% 30.30 in 7.0 mi NE 8.1 mph - N/A   Clear
4:35 AM 55.4 °F 48.2 °F 77% 30.31 in 7.0 mi NE 11.5 mph - N/A   Clear
4:55 AM 55.4 °F 48.2 °F 77% 30.32 in 7.0 mi NE 10.4 mph - N/A   Clear
5:15 AM 55.4 °F 48.2 °F 77% 30.33 in 7.0 mi NE 8.1 mph - N/A   Clear
5:35 AM 53.6 °F 48.2 °F 82% 30.33 in 7.0 mi NE 9.2 mph - N/A   Clear
6:35 AM 53.6 °F 50.0 °F 88% 30.35 in 7.0 mi NE 9.2 mph - N/A   Clear
6:55 AM 53.6 °F 50.0 °F 88% 30.36 in 7.0 mi NNE 6.9 mph - N/A   Clear
7:15 AM 51.8 °F 50.0 °F 94% 30.36 in 7.0 mi NNE 5.8 mph - N/A   Clear
7:35 AM 51.8 °F 50.0 °F 94% 30.37 in 7.0 mi NNE 5.8 mph - N/A   Clear
7:55 AM 51.8 °F 50.0 °F 94% 30.37 in 7.0 mi NNE 8.1 mph - N/A   Clear
8:15 AM 53.6 °F 50.0 °F 88% 30.38 in 5.0 mi NNE 9.2 mph - N/A   Clear
8:35 AM 53.6 °F 50.0 °F 88% 30.39 in 7.0 mi NNE 10.4 mph 16.1 mph N/A   Clear
8:55 AM 55.4 °F 50.0 °F 82% 30.40 in 7.0 mi NNE 10.4 mph - N/A   Clear
9:15 AM 55.4 °F 50.0 °F 82% 30.40 in 5.0 mi NNE 11.5 mph - N/A   Haze
9:55 AM 59.0 °F 50.0 °F 72% 30.41 in 7.0 mi NNE 11.5 mph - N/A   Clear
10:55 AM 64.4 °F 50.0 °F 59% 30.41 in 7.0 mi NNE 11.5 mph - N/A   Clear
11:15 AM 64.4 °F 48.2 °F 56% 30.40 in 5.0 mi NE 11.5 mph - N/A   Haze
12:15 PM 68.0 °F 50.0 °F 52% 30.40 in 5.0 mi NE 9.2 mph - N/A   Haze
12:35 PM 69.8 °F 50.0 °F 49% 30.39 in 7.0 mi NNE 10.4 mph - N/A   Clear
12:55 PM 69.8 °F 50.0 °F 49% 30.39 in 7.0 mi NE 9.2 mph - N/A   Clear
1:35 PM 71.6 °F 51.8 °F 50% 30.37 in 7.0 mi NE 8.1 mph - N/A   Clear
1:55 PM 71.6 °F 50.0 °F 46% 30.37 in 5.0 mi NNE 6.9 mph - N/A   Haze
2:15 PM 71.6 °F 51.8 °F 50% 30.36 in 7.0 mi NNE 9.2 mph - N/A   Clear
2:35 PM 71.6 °F 51.8 °F 50% 30.35 in 5.0 mi East 9.2 mph - N/A   Haze
2:55 PM 71.6 °F 51.8 °F 50% 30.34 in 5.0 mi East 6.9 mph - N/A   Haze
3:15 PM 71.6 °F 51.8 °F 50% 30.33 in 7.0 mi NE 10.4 mph - N/A   Clear
3:35 PM 71.6 °F 51.8 °F 50% 30.33 in 7.0 mi ENE 5.8 mph - N/A   Clear
3:55 PM 71.6 °F 51.8 °F 50% 30.33 in 7.0 mi NNE 6.9 mph - N/A   Clear
4:15 PM 73.4 °F 51.8 °F 47% 30.32 in 5.0 mi NE 9.2 mph - N/A   Haze
4:35 PM 71.6 °F 50.0 °F 46% 30.32 in 7.0 mi NE 9.2 mph - N/A   Clear
4:55 PM 71.6 °F 51.8 °F 50% 30.31 in 7.0 mi NE 6.9 mph - N/A   Clear
5:15 PM 71.6 °F 51.8 °F 50% 30.32 in 7.0 mi NNE 9.2 mph - N/A   Clear
5:35 PM 71.6 °F 51.8 °F 50% 30.32 in 5.0 mi NE 5.8 mph - N/A   Haze
5:55 PM 69.8 °F 53.6 °F 56% 30.32 in 7.0 mi NE 4.6 mph - N/A   Clear
6:35 PM 66.2 °F 53.6 °F 64% 30.33 in 7.0 mi NNE 4.6 mph - N/A   Clear
6:55 PM 60.8 °F 55.4 °F 82% 30.33 in 7.0 mi Calm Calm - N/A   Clear
7:15 PM 59.0 °F 55.4 °F 88% 30.33 in 7.0 mi Calm Calm - N/A   Clear
7:35 PM 59.0 °F 55.4 °F 88% 30.33 in 7.0 mi Calm Calm - N/A   Clear
7:55 PM 57.2 °F 55.4 °F 94% 30.33 in 7.0 mi Calm Calm - N/A   Clear
8:35 PM 55.4 °F 55.4 °F 100% 30.34 in 7.0 mi Calm Calm - N/A   Clear
8:55 PM 55.4 °F 55.4 °F 100% 30.34 in 7.0 mi Calm Calm - N/A   Clear
9:35 PM 53.6 °F 53.6 °F 100% 30.34 in 7.0 mi Calm Calm - N/A   Clear
10:15 PM 53.6 °F 53.6 °F 100% 30.34 in 7.0 mi Calm Calm - N/A   Clear
10:35 PM 53.6 °F 53.6 °F 100% 30.34 in 10.0 mi Calm Calm - N/A   Clear
10:55 PM 51.8 °F 51.8 °F 100% 30.33 in 7.0 mi Calm Calm - N/A   Clear
11:15 PM 51.8 °F 51.8 °F 100% 30.33 in 7.0 mi Calm Calm - N/A   Clear
11:55 PM 51.8 °F 51.8 °F 100% 30.33 in 7.0 mi Calm Calm - N/A   Clear